Regional Weather Roundup
Issued by NWS Raleigh/Durham, NC

Home | Current Version | Previous Version | Text Only | Print | Product List | Glossary On
Versions: 1 2 3 4 5 6 7 8 9 10 11 12 13 14 15 16 17 18 19 20 21 22 23 24 25 26 27 28 29 30 31 32 33 34 35 36 37 38 39 40 41 42 43 44 45 46 47 48 49 50
000
ASUS42 KRAH 021910
RWRRAH
NORTH CAROLINA WEATHER ROUNDUP
NATIONAL WEATHER SERVICE RALEIGH NC
200 PM EST FRI DEC 02 2016

NOTE: "FAIR" INDICATES FEW OR NO CLOUDS BELOW 12,000 FEET WITH NO
SIGNIFICANT WEATHER AND/OR OBSTRUCTIONS TO VISIBILITY.

NCZ001-053-055-056-065-067-022000-
WESTERN NORTH CAROLINA

CITY           SKY/WX    TMP DP  RH WIND       PRES   REMARKS
ASHEVILLE      SUNNY     53  19  26 N15       30.14F
JEFFERSON      SUNNY     42  22  44 W7G17     30.09F
MORGANTON      SUNNY     58  23  26 W6        30.16F
HICKORY        SUNNY     58  25  28 W8        30.10F
RUTHERFORDTON  SUNNY     57  27  31 CALM      30.14F
MOUNT AIRY     SUNNY     55  30  38 W8        30.12F
BOONE          SUNNY     42  21  44 NW23G37   30.10F
$$

NCZ021-022-025-041-071-084-088-022000-
CENTRAL NORTH CAROLINA

CITY           SKY/WX    TMP DP  RH WIND       PRES   REMARKS
CHARLOTTE      MOSUNNY   57  29  34 W7        30.14F
GREENSBORO     MOSUNNY   55  29  36 W16       30.10F
WINSTON-SALEM  SUNNY     54  26  34 VRB6      30.11F
RALEIGH-DURHAM MOSUNNY   68  28  22 SW13G18   30.09F
FORT BRAGG     SUNNY     59  29  32 W13       30.09F
FAYETTEVILLE   SUNNY     58  31  35 VRB5      30.10F
BURLINGTON     SUNNY     55  29  36 W14       30.10S
LAURINBURG     SUNNY     58  31  35 NW7       30.12F
$$

NCZ011-015-027-028-043-044-047-080-103-022000-
NORTHEASTERN NORTH CAROLINA

CITY           SKY/WX    TMP DP  RH WIND       PRES   REMARKS
ROCKY MT-WILSO SUNNY     57  31  37 W8        30.07F
GREENVILLE     SUNNY     55  32  41 W8        30.09F
WASHINGTON     SUNNY     56  31  38 W7        30.07F
ELIZABETH CITY SUNNY     54  31  41 W9        30.05F
MANTEO         SUNNY     52  33  47 NW8       30.06F
CAPE HATTERAS  SUNNY     56  39  53 VRB3      30.05F
$$

NCZ078-087-090-091-093-098-101-022000-
SOUTHEASTERN NORTH CAROLINA

CITY           SKY/WX    TMP DP  RH WIND       PRES   REMARKS
LUMBERTON      SUNNY     58  33  39 NW12      30.11F
GOLDSBORO      SUNNY     58  29  34 W12       30.06F
KINSTON        SUNNY     57  30  35 NW6       30.09F
KENANSVILLE    SUNNY     55  30  38 NW10      30.10F
NEW BERN       SUNNY     56  32  40 N10       30.08F
CHERRY POINT   SUNNY     59  35  40 N8        30.08F
BEAUFORT       SUNNY     58  37  45 VRB7      30.07F
JACKSONVILLE   MOSUNNY   58  31  35 NW10      30.08F
WILMINGTON     SUNNY     59  32  36 NW7       30.09F
$$




USA.gov is the U.S. government's official web portal to all federal, state and local government web resources and services.